VDA252 ULOO-ULLI

Flight info

Callsign VDA252
Flight time 0h 38m
Altitude 17000
Route IRBUG N743 KOLET
Aircraft IL76/H-SDIRW/C

Departure

Time 2026-04-17 06:27
Airport Princess Olga Pskov International Airport (ULOO)

Arrival

Time 2026-04-17 07:05
Airport Pulkovo Airport (ULLI)
Time Latitude Longitude Altitude Speed Heading
2026-04-17 06:17 57.78896 28.39134 161 ft 0 kts 196°
2026-04-17 06:23 57.78895 28.39133 161 ft 0 kts 196°
2026-04-17 06:23 57.78885 28.39127 161 ft 3 kts 196°
2026-04-17 06:23 57.78847 28.39110 161 ft 7 kts 183°
2026-04-17 06:23 57.78804 28.39184 160 ft 11 kts 110°
2026-04-17 06:24 57.78828 28.39317 160 ft 14 kts 27°
2026-04-17 06:24 57.78932 28.39380 160 ft 17 kts 17°
2026-04-17 06:24 57.79063 28.39458 161 ft 21 kts 17°
2026-04-17 06:24 57.79213 28.39547 161 ft 21 kts 17°
2026-04-17 06:25 57.79306 28.39668 161 ft 14 kts 105°
2026-04-17 06:25 57.79282 28.39822 160 ft 11 kts 105°
2026-04-17 06:25 57.79262 28.39947 159 ft 9 kts 111°
2026-04-17 06:25 57.79221 28.40016 161 ft 7 kts 165°
2026-04-17 06:26 57.79172 28.40014 161 ft 7 kts 191°
2026-04-17 06:26 57.79120 28.39993 161 ft 10 kts 193°
2026-04-17 06:26 57.78849 28.39825 158 ft 77 kts 198°
2026-04-17 06:26 57.78132 28.39393 158 ft 137 kts 198°
2026-04-17 06:27 57.77088 28.38741 344 ft 166 kts 199°
2026-04-17 06:27 57.75994 28.38072 803 ft 168 kts 198°
2026-04-17 06:27 57.74863 28.37585 1259 ft 172 kts 179°
2026-04-17 06:27 57.73785 28.38578 1617 ft 180 kts 130°
2026-04-17 06:28 57.73361 28.40705 2104 ft 179 kts 87°
2026-04-17 06:28 57.73794 28.42747 2569 ft 172 kts 43°
2026-04-17 06:28 57.74815 28.43767 3064 ft 167 kts 15°
2026-04-17 06:28 57.75915 28.44684 3535 ft 184 kts 21°
2026-04-17 06:29 57.77097 28.45705 4074 ft 206 kts 22°
2026-04-17 06:29 57.78432 28.46975 4687 ft 228 kts 24°
2026-04-17 06:29 57.79862 28.48345 5259 ft 237 kts 24°
2026-04-17 06:29 57.81331 28.49826 5789 ft 245 kts 25°
2026-04-17 06:30 57.82860 28.51375 6317 ft 252 kts 24°
2026-04-17 06:30 57.84403 28.52921 6850 ft 249 kts 25°
2026-04-17 06:30 57.85925 28.54494 7382 ft 254 kts 24°
2026-04-17 06:30 57.87494 28.56058 7913 ft 257 kts 25°
2026-04-17 06:31 57.89074 28.57715 8465 ft 260 kts 24°
2026-04-17 06:31 57.90708 28.59329 9048 ft 277 kts 24°
2026-04-17 06:31 57.92454 28.61151 9676 ft 294 kts 25°
2026-04-17 06:31 57.94271 28.62995 10255 ft 302 kts 24°
2026-04-17 06:32 57.96118 28.64868 10825 ft 305 kts 26°
2026-04-17 06:32 57.97977 28.66825 11389 ft 309 kts 25°
2026-04-17 06:32 57.99883 28.68721 11954 ft 313 kts 26°
2026-04-17 06:32 58.01780 28.70742 12510 ft 315 kts 26°
2026-04-17 06:33 58.03721 28.72677 13090 ft 317 kts 25°
2026-04-17 06:33 58.05634 28.74703 13651 ft 319 kts 26°
2026-04-17 06:33 58.07589 28.76691 14235 ft 320 kts 25°
2026-04-17 06:33 58.09555 28.78691 14810 ft 321 kts 22°
2026-04-17 06:34 58.11669 28.79661 15445 ft 312 kts 353°
2026-04-17 06:34 58.13801 28.79087 16214 ft 312 kts 350°
2026-04-17 06:34 58.16007 28.78914 16671 ft 320 kts 352°
2026-04-17 06:34 58.18212 28.78391 16932 ft 319 kts 350°
2026-04-17 06:35 58.20399 28.78793 17161 ft 328 kts 15°
2026-04-17 06:35 58.22562 28.80261 17155 ft 330 kts 10°
2026-04-17 06:35 58.24789 28.81103 17122 ft 326 kts 10°
2026-04-17 06:35 58.26972 28.82218 17085 ft 327 kts
2026-04-17 06:36 58.29164 28.83200 17046 ft 326 kts 11°
2026-04-17 06:36 58.31348 28.84323 17044 ft 326 kts 11°
2026-04-17 06:36 58.33568 28.85357 17041 ft 326 kts 10°
2026-04-17 06:36 58.35759 28.86454 17043 ft 327 kts 12°
2026-04-17 06:37 58.37950 28.87552 17040 ft 326 kts 10°
2026-04-17 06:37 58.40161 28.88591 17040 ft 327 kts 11°
2026-04-17 06:37 58.42331 28.89725 17045 ft 327 kts 11°
2026-04-17 06:37 58.44560 28.90779 17052 ft 327 kts 10°
2026-04-17 06:38 58.46760 28.91887 17050 ft 328 kts 12°
2026-04-17 06:38 58.48953 28.93001 17050 ft 328 kts 10°
2026-04-17 06:38 58.51144 28.94035 17050 ft 328 kts 11°
2026-04-17 06:38 58.53357 28.95198 17055 ft 328 kts 11°
2026-04-17 06:39 58.55566 28.96254 17063 ft 328 kts 10°
2026-04-17 06:39 58.57770 28.97365 17060 ft 329 kts 12°
2026-04-17 06:39 58.59974 28.98496 17059 ft 329 kts 10°
2026-04-17 06:39 58.62211 28.99557 17060 ft 329 kts 11°
2026-04-17 06:40 58.64420 29.00724 17066 ft 329 kts 11°
2026-04-17 06:40 58.66633 29.01788 17072 ft 329 kts 10°
2026-04-17 06:40 58.68842 29.02906 17070 ft 330 kts 12°
2026-04-17 06:40 58.71043 29.04046 17050 ft 321 kts 10°
2026-04-17 06:41 58.73162 29.05064 17042 ft 311 kts 11°
2026-04-17 06:41 58.75209 29.06147 17023 ft 300 kts 11°
2026-04-17 06:41 58.77193 29.07115 17032 ft 289 kts 10°
2026-04-17 06:41 58.79125 29.08112 16915 ft 283 kts 11°
2026-04-17 06:42 58.80998 29.09051 16712 ft 280 kts 10°
2026-04-17 06:42 58.82890 29.09999 16511 ft 277 kts 11°
2026-04-17 06:42 58.84732 29.10951 16312 ft 274 kts 10°
2026-04-17 06:42 58.86581 29.11863 16114 ft 271 kts 11°
2026-04-17 06:43 58.88388 29.12804 15916 ft 268 kts 11°
2026-04-17 06:43 58.90181 29.13700 15722 ft 265 kts 10°
2026-04-17 06:43 58.91946 29.14604 15525 ft 262 kts 11°
2026-04-17 06:43 58.93694 29.15504 15329 ft 259 kts
2026-04-17 06:44 58.95418 29.16366 15115 ft 257 kts 10°
2026-04-17 06:44 58.97142 29.17266 14899 ft 255 kts 10°
2026-04-17 06:44 58.98836 29.18115 14688 ft 253 kts
2026-04-17 06:44 59.00525 29.19042 14509 ft 249 kts 11°
2026-04-17 06:45 59.02161 29.19976 14321 ft 246 kts 11°
2026-04-17 06:45 59.03786 29.20900 14127 ft 243 kts 11°
2026-04-17 06:45 59.05396 29.21835 13932 ft 240 kts 11°
2026-04-17 06:45 59.06991 29.22737 13737 ft 237 kts 11°
2026-04-17 06:46 59.08560 29.23651 13542 ft 234 kts 11°
2026-04-17 06:46 59.10102 29.24533 13348 ft 231 kts 11°
2026-04-17 06:46 59.11658 29.25429 13088 ft 232 kts 11°
2026-04-17 06:46 59.13187 29.26317 12820 ft 232 kts 11°
2026-04-17 06:47 59.14736 29.27199 12553 ft 233 kts 11°
2026-04-17 06:47 59.16307 29.28119 12290 ft 234 kts 11°
2026-04-17 06:47 59.17847 29.29004 12028 ft 234 kts 11°
2026-04-17 06:47 59.19419 29.29913 11772 ft 235 kts 11°
2026-04-17 06:48 59.20972 29.30830 11523 ft 235 kts 11°
2026-04-17 06:48 59.22549 29.31732 11272 ft 236 kts 11°
2026-04-17 06:48 59.24116 29.32653 11028 ft 236 kts 11°
2026-04-17 06:48 59.25695 29.33579 10777 ft 237 kts 10°
2026-04-17 06:49 59.27275 29.34482 10535 ft 237 kts 11°
2026-04-17 06:49 59.28841 29.35416 10301 ft 237 kts 11°
2026-04-17 06:49 59.30422 29.36326 10052 ft 237 kts 10°
2026-04-17 06:49 59.32000 29.37240 9816 ft 238 kts 11°
2026-04-17 06:50 59.33589 29.38190 9578 ft 238 kts 11°
2026-04-17 06:50 59.35175 29.39092 9356 ft 238 kts 11°
2026-04-17 06:50 59.36744 29.40029 9118 ft 238 kts 12°
2026-04-17 06:50 59.38340 29.40969 8881 ft 238 kts 11°
2026-04-17 06:51 59.39923 29.41874 8659 ft 238 kts 12°
2026-04-17 06:51 59.41507 29.42835 8435 ft 238 kts 12°
2026-04-17 06:51 59.43076 29.43736 8217 ft 237 kts 11°
2026-04-17 06:51 59.44656 29.44667 7992 ft 237 kts 13°
2026-04-17 06:52 59.46243 29.45623 7769 ft 237 kts 12°
2026-04-17 06:52 59.47812 29.46514 7550 ft 236 kts 12°
2026-04-17 06:52 59.49381 29.47477 7336 ft 236 kts 13°
2026-04-17 06:52 59.50935 29.48380 7132 ft 234 kts 12°
2026-04-17 06:53 59.52492 29.49293 6908 ft 235 kts 13°
2026-04-17 06:53 59.54063 29.50246 6712 ft 233 kts 12°
2026-04-17 06:53 59.55615 29.51134 6496 ft 232 kts 14°
2026-04-17 06:53 59.57141 29.52085 6296 ft 231 kts 13°
2026-04-17 06:54 59.58671 29.52958 6087 ft 230 kts 13°
2026-04-17 06:54 59.60200 29.53901 5832 ft 222 kts 13°
2026-04-17 06:54 59.61598 29.54713 5518 ft 204 kts 13°
2026-04-17 06:54 59.62910 29.55502 5201 ft 190 kts 14°
2026-04-17 06:55 59.64161 29.56238 4986 ft 189 kts 14°
2026-04-17 06:55 59.65403 29.57199 4715 ft 193 kts 31°
2026-04-17 06:55 59.66463 29.58722 4583 ft 186 kts 28°
2026-04-17 06:55 59.67551 29.60094 4370 ft 184 kts 31°
2026-04-17 06:56 59.68610 29.61498 4137 ft 185 kts 31°
2026-04-17 06:56 59.69688 29.62947 3879 ft 188 kts 31°
2026-04-17 06:56 59.70773 29.64412 3634 ft 190 kts 31°
2026-04-17 06:56 59.71878 29.65877 3390 ft 192 kts 33°
2026-04-17 06:57 59.72968 29.67354 3143 ft 194 kts 32°
2026-04-17 06:57 59.74096 29.68879 2876 ft 197 kts 33°
2026-04-17 06:57 59.75237 29.70442 2678 ft 196 kts 34°
2026-04-17 06:57 59.76335 29.71905 2673 ft 185 kts 33°
2026-04-17 06:58 59.77353 29.73332 2642 ft 176 kts 33°
2026-04-17 06:58 59.78352 29.74676 2518 ft 172 kts 34°
2026-04-17 06:58 59.79289 29.76151 2384 ft 171 kts 54°
2026-04-17 06:58 59.79856 29.78174 2434 ft 169 kts 55°
2026-04-17 06:59 59.80523 29.80129 2462 ft 173 kts 55°
2026-04-17 06:59 59.81164 29.82153 2375 ft 174 kts 54°
2026-04-17 06:59 59.81801 29.84172 2261 ft 169 kts 57°
2026-04-17 06:59 59.82410 29.86119 2146 ft 165 kts 57°
2026-04-17 07:00 59.83012 29.88100 2234 ft 165 kts 57°
2026-04-17 07:00 59.83612 29.90043 2211 ft 166 kts 57°
2026-04-17 07:00 59.84203 29.92006 2180 ft 165 kts 57°
2026-04-17 07:00 59.84800 29.93970 2152 ft 165 kts 62°
2026-04-17 07:01 59.84936 29.96245 2094 ft 171 kts 95°
2026-04-17 07:01 59.84810 29.98532 2252 ft 166 kts 96°
2026-04-17 07:01 59.84477 30.00746 2290 ft 174 kts 104°
2026-04-17 07:01 59.84140 30.03089 2371 ft 173 kts 103°
2026-04-17 07:02 59.83809 30.05285 2399 ft 156 kts 103°
2026-04-17 07:02 59.83509 30.07332 2278 ft 155 kts 103°
2026-04-17 07:02 59.83215 30.09354 2216 ft 152 kts 102°
2026-04-17 07:02 59.82922 30.11428 2048 ft 160 kts 103°
2026-04-17 07:03 59.82594 30.13499 1810 ft 153 kts 104°
2026-04-17 07:03 59.82286 30.15487 1533 ft 148 kts 104°
2026-04-17 07:03 59.81998 30.17450 1079 ft 152 kts 103°
2026-04-17 07:03 59.81717 30.19435 694 ft 146 kts 103°
2026-04-17 07:04 59.81440 30.21358 380 ft 143 kts 102°
2026-04-17 07:04 59.81173 30.23226 212 ft 138 kts 104°
2026-04-17 07:04 59.80911 30.25017 102 ft 134 kts 103°
2026-04-17 07:04 59.80681 30.26611 91 ft 101 kts 108°
2026-04-17 07:05 59.80517 30.27701 91 ft 67 kts 107°
2026-04-17 07:05 59.80391 30.28516 91 ft 55 kts 105°
2026-04-17 07:05 59.80285 30.29195 91 ft 48 kts 111°
2026-04-17 07:05 59.80194 30.29721 91 ft 27 kts 101°
2026-04-17 07:06 59.80243 30.30020 91 ft 15 kts 48°
2026-04-17 07:06 59.80252 30.30040 91 ft 0 kts 48°
2026-04-17 07:06 59.80253 30.30041 91 ft 0 kts 48°
2026-04-17 07:07 59.80257 30.30050 91 ft 1 kts 48°
2026-04-17 07:07 59.80265 30.30071 91 ft 2 kts 49°
2026-04-17 07:07 59.80281 30.30106 91 ft 4 kts 49°
2026-04-17 07:07 59.80313 30.30182 91 ft 9 kts 49°
2026-04-17 07:08 59.80347 30.30258 91 ft 4 kts 48°
2026-04-17 07:08 59.80362 30.30291 91 ft 2 kts 48°
2026-04-17 07:08 59.80376 30.30324 91 ft 4 kts 52°
2026-04-17 07:08 59.80386 30.30382 91 ft 4 kts 92°
2026-04-17 07:09 59.80368 30.30442 91 ft 5 kts 136°
2026-04-17 07:09 59.80337 30.30506 91 ft 7 kts 121°
2026-04-17 07:09 59.80343 30.30600 91 ft 7 kts 48°
2026-04-17 07:09 59.80389 30.30616 91 ft 5 kts 332°
2026-04-17 07:10 59.80408 30.30590 91 ft 2 kts 321°
2026-04-17 07:10 59.80425 30.30562 91 ft 0 kts 320°